SBI512 UNKL-UNNT

Flight info

Callsign SBI512
Flight time 1h 12m
Altitude 36000
Route APRUS2F APRUS B926 NATIR NATIR1N
Aircraft A320/M-SDE3FGHIRWY/LB1

Departure

Time 2026-05-01 08:44
Airport Krasnoyarsk International Airport (UNKL)

Arrival

Time 2026-05-01 09:56
Airport Novosibirsk Tolmachevo Airport (UNNT)
Time Latitude Longitude Altitude Speed Heading
2026-05-01 08:10 56.17978 92.48437 957 ft 0 kts 24°
2026-05-01 08:28 56.17971 92.48431 954 ft 2 kts 24°
2026-05-01 08:28 56.17956 92.48419 953 ft 2 kts 25°
2026-05-01 08:29 56.17941 92.48406 954 ft 2 kts 27°
2026-05-01 08:29 56.17927 92.48392 954 ft 2 kts 29°
2026-05-01 08:29 56.17913 92.48378 955 ft 2 kts 36°
2026-05-01 08:29 56.17900 92.48358 953 ft 2 kts 74°
2026-05-01 08:30 56.17899 92.48336 954 ft 1 kts 111°
2026-05-01 08:30 56.17900 92.48332 954 ft 0 kts 111°
2026-05-01 08:32 56.17900 92.48333 954 ft 0 kts 111°
2026-05-01 08:32 56.17886 92.48397 954 ft 8 kts 111°
2026-05-01 08:33 56.17872 92.48450 954 ft 2 kts 136°
2026-05-01 08:33 56.17863 92.48455 954 ft 1 kts 165°
2026-05-01 08:33 56.17850 92.48458 953 ft 0 kts 176°
2026-05-01 08:34 56.17810 92.48440 954 ft 9 kts 197°
2026-05-01 08:34 56.17767 92.48409 955 ft 6 kts 199°
2026-05-01 08:34 56.17733 92.48409 955 ft 0 kts 163°
2026-05-01 08:35 56.17719 92.48488 955 ft 13 kts 104°
2026-05-01 08:35 56.17691 92.48610 957 ft 10 kts 113°
2026-05-01 08:35 56.17665 92.48717 955 ft 9 kts 113°
2026-05-01 08:35 56.17642 92.48815 954 ft 8 kts 113°
2026-05-01 08:36 56.17603 92.48977 957 ft 17 kts 112°
2026-05-01 08:36 56.17560 92.49164 954 ft 15 kts 113°
2026-05-01 08:36 56.17520 92.49332 953 ft 14 kts 112°
2026-05-01 08:36 56.17485 92.49480 953 ft 13 kts 112°
2026-05-01 08:37 56.17439 92.49678 955 ft 18 kts 113°
2026-05-01 08:37 56.17391 92.49877 955 ft 17 kts 113°
2026-05-01 08:37 56.17348 92.50058 956 ft 15 kts 113°
2026-05-01 08:37 56.17303 92.50246 957 ft 19 kts 113°
2026-05-01 08:38 56.17252 92.50462 955 ft 20 kts 113°
2026-05-01 08:38 56.17196 92.50696 953 ft 22 kts 113°
2026-05-01 08:38 56.17146 92.50906 957 ft 17 kts 113°
2026-05-01 08:38 56.17095 92.51120 955 ft 19 kts 113°
2026-05-01 08:39 56.17058 92.51276 957 ft 12 kts 113°
2026-05-01 08:39 56.17022 92.51424 954 ft 16 kts 113°
2026-05-01 08:39 56.16980 92.51602 953 ft 15 kts 113°
2026-05-01 08:39 56.16942 92.51764 955 ft 13 kts 113°
2026-05-01 08:40 56.16874 92.51999 954 ft 7 kts 148°
2026-05-01 08:40 56.16829 92.52017 954 ft 6 kts 176°
2026-05-01 08:40 56.16824 92.52018 955 ft 0 kts 175°
2026-05-01 08:41 56.16822 92.52018 954 ft 3 kts 175°
2026-05-01 08:41 56.16772 92.52026 954 ft 8 kts 175°
2026-05-01 08:42 56.16719 92.52039 954 ft 8 kts 173°
2026-05-01 08:42 56.16669 92.52014 955 ft 7 kts 232°
2026-05-01 08:42 56.16672 92.51946 955 ft 5 kts 290°
2026-05-01 08:42 56.16681 92.51903 952 ft 3 kts 290°
2026-05-01 08:43 56.16685 92.51886 954 ft 0 kts 294°
2026-05-01 08:43 56.16707 92.51799 956 ft 31 kts 295°
2026-05-01 08:43 56.16899 92.50990 953 ft 105 kts 292°
2026-05-01 08:43 56.17265 92.49456 958 ft 159 kts 293°
2026-05-01 08:44 56.17696 92.47657 1694 ft 157 kts 293°
2026-05-01 08:44 56.18129 92.45826 2437 ft 164 kts 292°
2026-05-01 08:44 56.18597 92.43827 2945 ft 186 kts 292°
2026-05-01 08:44 56.19129 92.41559 3334 ft 207 kts 292°
2026-05-01 08:45 56.19719 92.39062 3751 ft 229 kts 292°
2026-05-01 08:45 56.20378 92.36284 4256 ft 253 kts 292°
2026-05-01 08:45 56.21085 92.33314 5162 ft 263 kts 292°
2026-05-01 08:45 56.21710 92.30201 5721 ft 266 kts 278°
2026-05-01 08:46 56.21570 92.26916 5935 ft 265 kts 255°
2026-05-01 08:46 56.20921 92.23774 6342 ft 274 kts 246°
2026-05-01 08:46 56.20107 92.20699 7459 ft 271 kts 245°
2026-05-01 08:46 56.19289 92.17643 8488 ft 273 kts 246°
2026-05-01 08:47 56.18496 92.14513 9471 ft 278 kts 248°
2026-05-01 08:47 56.17732 92.11308 10357 ft 284 kts 250°
2026-05-01 08:47 56.16955 92.07894 10719 ft 307 kts 250°
2026-05-01 08:47 56.16141 92.04203 11188 ft 326 kts 251°
2026-05-01 08:48 56.15312 92.00380 11952 ft 332 kts 251°
2026-05-01 08:48 56.14476 91.96498 12786 ft 335 kts 252°
2026-05-01 08:48 56.13632 91.92574 13622 ft 339 kts 252°
2026-05-01 08:48 56.12780 91.88617 14391 ft 342 kts 252°
2026-05-01 08:49 56.11918 91.84624 15130 ft 345 kts 252°
2026-05-01 08:49 56.11043 91.80597 15854 ft 348 kts 252°
2026-05-01 08:49 56.10156 91.76530 16570 ft 352 kts 252°
2026-05-01 08:49 56.09261 91.72428 17278 ft 355 kts 252°
2026-05-01 08:50 56.08355 91.68298 17913 ft 358 kts 252°
2026-05-01 08:50 56.07440 91.64135 18096 ft 359 kts 252°
2026-05-01 08:50 56.06525 91.59981 18137 ft 358 kts 252°
2026-05-01 08:50 56.05613 91.55841 18125 ft 358 kts 252°
2026-05-01 08:51 56.04700 91.51693 18127 ft 358 kts 252°
2026-05-01 08:51 56.03785 91.47551 18130 ft 358 kts 252°
2026-05-01 08:51 56.02869 91.43413 18123 ft 358 kts 252°
2026-05-01 08:51 56.01951 91.39268 18126 ft 359 kts 252°
2026-05-01 08:52 56.01029 91.35124 18114 ft 359 kts 252°
2026-05-01 08:52 56.00103 91.30983 18111 ft 359 kts 252°
2026-05-01 08:52 55.99177 91.26853 18119 ft 359 kts 252°
2026-05-01 08:52 55.98366 91.22653 18116 ft 355 kts 260°
2026-05-01 08:53 55.97926 91.18337 18124 ft 354 kts 264°
2026-05-01 08:53 55.97531 91.13998 18113 ft 354 kts 264°
2026-05-01 08:53 55.97135 91.09673 18116 ft 353 kts 264°
2026-05-01 08:53 55.96736 91.05355 18118 ft 352 kts 264°
2026-05-01 08:54 55.96331 91.01048 18122 ft 352 kts 264°
2026-05-01 08:54 55.95921 90.96710 18498 ft 356 kts 264°
2026-05-01 08:54 55.95508 90.92342 19151 ft 358 kts 264°
2026-05-01 08:54 55.95094 90.87939 19743 ft 361 kts 264°
2026-05-01 08:55 55.94674 90.83507 20323 ft 365 kts 264°
2026-05-01 08:55 55.94246 90.79023 20892 ft 368 kts 264°
2026-05-01 08:55 55.93814 90.74502 21445 ft 371 kts 264°
2026-05-01 08:55 55.93375 90.69941 22016 ft 375 kts 264°
2026-05-01 08:56 55.92931 90.65346 22559 ft 378 kts 264°
2026-05-01 08:56 55.92481 90.60708 23097 ft 381 kts 264°
2026-05-01 08:56 55.92029 90.56031 23607 ft 384 kts 264°
2026-05-01 08:56 55.91570 90.51326 24079 ft 387 kts 264°
2026-05-01 08:57 55.91102 90.46595 24523 ft 389 kts 264°
2026-05-01 08:57 55.90627 90.41832 24968 ft 391 kts 264°
2026-05-01 08:57 55.90148 90.37046 25409 ft 393 kts 264°
2026-05-01 08:57 55.89667 90.32231 25835 ft 396 kts 264°
2026-05-01 08:58 55.89183 90.27388 26253 ft 398 kts 264°
2026-05-01 08:58 55.88697 90.22524 26668 ft 400 kts 264°
2026-05-01 08:58 55.88206 90.17631 27005 ft 402 kts 264°
2026-05-01 08:58 55.87710 90.12727 27074 ft 402 kts 264°
2026-05-01 08:59 55.87213 90.07829 27087 ft 401 kts 264°
2026-05-01 08:59 55.86717 90.02941 27087 ft 401 kts 264°
2026-05-01 08:59 55.86220 89.98054 27076 ft 401 kts 264°
2026-05-01 08:59 55.85719 89.93171 27083 ft 401 kts 264°
2026-05-01 09:00 55.85215 89.88295 27085 ft 401 kts 264°
2026-05-01 09:00 55.84708 89.83419 27087 ft 401 kts 264°
2026-05-01 09:00 55.84197 89.78546 27086 ft 401 kts 264°
2026-05-01 09:00 55.83682 89.73674 27087 ft 401 kts 264°
2026-05-01 09:01 55.83168 89.68801 27085 ft 401 kts 264°
2026-05-01 09:01 55.82656 89.63932 27084 ft 400 kts 264°
2026-05-01 09:01 55.82145 89.59068 27085 ft 401 kts 264°
2026-05-01 09:01 55.81629 89.54192 27084 ft 401 kts 263°
2026-05-01 09:02 55.81107 89.49323 27083 ft 401 kts 263°
2026-05-01 09:02 55.80584 89.44454 27084 ft 401 kts 263°
2026-05-01 09:02 55.80062 89.39591 27085 ft 401 kts 263°
2026-05-01 09:02 55.79538 89.34722 27084 ft 401 kts 263°
2026-05-01 09:03 55.79011 89.29855 27081 ft 401 kts 263°
2026-05-01 09:03 55.78487 89.25001 27081 ft 401 kts 263°
2026-05-01 09:03 55.78137 89.21774 27065 ft 401 kts 263°
2026-05-01 09:03 55.77606 89.16908 27081 ft 402 kts 263°
2026-05-01 09:04 55.77068 89.12028 27081 ft 403 kts 263°
2026-05-01 09:04 55.76526 89.07143 27081 ft 403 kts 263°
2026-05-01 09:04 55.75983 89.02262 27081 ft 403 kts 263°
2026-05-01 09:04 55.75443 88.97382 27081 ft 403 kts 263°
2026-05-01 09:05 55.74900 88.92509 27080 ft 403 kts 263°
2026-05-01 09:05 55.74353 88.87625 27062 ft 403 kts 263°
2026-05-01 09:05 55.73805 88.82743 27080 ft 403 kts 263°
2026-05-01 09:05 55.73256 88.77869 27084 ft 403 kts 263°
2026-05-01 09:06 55.72705 88.73001 27082 ft 403 kts 262°
2026-05-01 09:06 55.72149 88.68125 27083 ft 403 kts 262°
2026-05-01 09:06 55.71590 88.63255 27083 ft 403 kts 262°
2026-05-01 09:06 55.71035 88.58389 27083 ft 403 kts 262°
2026-05-01 09:07 55.70480 88.53521 27082 ft 403 kts 262°
2026-05-01 09:07 55.69918 88.48642 27083 ft 403 kts 262°
2026-05-01 09:07 55.69353 88.43777 27086 ft 403 kts 262°
2026-05-01 09:07 55.68787 88.38914 27089 ft 403 kts 262°
2026-05-01 09:08 55.68217 88.34052 27090 ft 403 kts 262°
2026-05-01 09:08 55.67646 88.29198 27083 ft 402 kts 262°
2026-05-01 09:08 55.67075 88.24356 27087 ft 401 kts 262°
2026-05-01 09:08 55.66504 88.19527 27093 ft 401 kts 262°
2026-05-01 09:09 55.65931 88.14696 27088 ft 401 kts 262°
2026-05-01 09:09 55.65357 88.09865 27089 ft 401 kts 262°
2026-05-01 09:09 55.64781 88.05037 27090 ft 401 kts 262°
2026-05-01 09:09 55.64203 88.00213 27089 ft 401 kts 262°
2026-05-01 09:10 55.63624 87.95391 27092 ft 401 kts 262°
2026-05-01 09:10 55.63042 87.90560 27093 ft 401 kts 262°
2026-05-01 09:10 55.62460 87.85736 27095 ft 401 kts 262°
2026-05-01 09:10 55.61875 87.80913 27091 ft 401 kts 262°
2026-05-01 09:11 55.61289 87.76093 27084 ft 401 kts 261°
2026-05-01 09:11 55.60700 87.71278 27095 ft 400 kts 261°
2026-05-01 09:11 55.60109 87.66472 27094 ft 400 kts 261°
2026-05-01 09:11 55.59517 87.61662 27095 ft 400 kts 261°
2026-05-01 09:12 55.58922 87.56859 27093 ft 400 kts 261°
2026-05-01 09:12 55.58322 87.52054 27101 ft 400 kts 261°
2026-05-01 09:12 55.57722 87.47248 27101 ft 400 kts 261°
2026-05-01 09:12 55.57120 87.42447 27101 ft 400 kts 261°
2026-05-01 09:13 55.56518 87.37642 27100 ft 400 kts 261°
2026-05-01 09:13 55.55917 87.32846 27098 ft 400 kts 261°
2026-05-01 09:13 55.55314 87.28047 27100 ft 400 kts 261°
2026-05-01 09:13 55.54708 87.23250 27100 ft 400 kts 261°
2026-05-01 09:14 55.54085 87.18393 27100 ft 400 kts 260°
2026-05-01 09:14 55.53474 87.13663 27104 ft 400 kts 260°
2026-05-01 09:14 55.52859 87.08874 27106 ft 400 kts 260°
2026-05-01 09:14 55.52248 87.04083 27106 ft 400 kts 260°
2026-05-01 09:15 55.51636 86.99293 27104 ft 400 kts 260°
2026-05-01 09:15 55.51021 86.94505 27106 ft 400 kts 260°
2026-05-01 09:15 55.50403 86.89715 27106 ft 400 kts 260°
2026-05-01 09:15 55.49783 86.84926 27109 ft 400 kts 260°
2026-05-01 09:16 55.49159 86.80144 27109 ft 400 kts 260°
2026-05-01 09:16 55.48534 86.75363 27108 ft 400 kts 260°
2026-05-01 09:16 55.47907 86.70586 27093 ft 400 kts 260°
2026-05-01 09:17 55.46646 86.61014 27109 ft 401 kts 259°
2026-05-01 09:17 55.46011 86.56224 27110 ft 401 kts 259°
2026-05-01 09:17 55.44736 86.46657 27102 ft 401 kts 259°
2026-05-01 09:18 55.44087 86.41814 27117 ft 401 kts 259°
2026-05-01 09:18 55.42806 86.32322 27115 ft 401 kts 259°
2026-05-01 09:19 55.41507 86.22767 27114 ft 401 kts 259°
2026-05-01 09:19 55.40856 86.17988 27102 ft 401 kts 259°
2026-05-01 09:19 55.40198 86.13152 27115 ft 401 kts 259°
2026-05-01 09:20 55.38893 86.03623 27104 ft 400 kts 259°
2026-05-01 09:20 55.37587 85.94174 27110 ft 400 kts 259°
2026-05-01 09:21 55.36262 85.84604 27107 ft 400 kts 258°
2026-05-01 09:21 55.35599 85.79853 27108 ft 400 kts 258°
2026-05-01 09:21 55.34265 85.70360 27103 ft 400 kts 258°
2026-05-01 09:22 55.32925 85.60871 27104 ft 400 kts 258°
2026-05-01 09:22 55.31591 85.51450 27092 ft 399 kts 258°
2026-05-01 09:23 55.30919 85.46726 27094 ft 399 kts 258°
2026-05-01 09:23 55.29565 85.37279 27093 ft 399 kts 258°
2026-05-01 09:24 55.28203 85.27832 27097 ft 399 kts 258°
2026-05-01 09:24 55.27517 85.23116 27085 ft 399 kts 258°
2026-05-01 09:24 55.26141 85.13684 27084 ft 399 kts 258°
2026-05-01 09:25 55.24762 85.04257 27090 ft 399 kts 258°
2026-05-01 09:25 55.23372 84.94776 27082 ft 399 kts 257°
2026-05-01 09:26 55.22684 84.90126 27078 ft 399 kts 257°
2026-05-01 09:26 55.21288 84.80726 27077 ft 399 kts 257°
2026-05-01 09:26 55.20582 84.76022 27080 ft 399 kts 257°
2026-05-01 09:27 55.19103 84.66591 27076 ft 400 kts 255°
2026-05-01 09:27 55.18241 84.61965 27078 ft 400 kts 253°
2026-05-01 09:27 55.17321 84.57372 27071 ft 400 kts 252°
2026-05-01 09:28 55.16376 84.52789 27071 ft 400 kts 252°
2026-05-01 09:28 55.15430 84.48217 27071 ft 400 kts 252°
2026-05-01 09:28 55.14490 84.43631 27073 ft 400 kts 252°
2026-05-01 09:28 55.13579 84.39113 27059 ft 399 kts 252°
2026-05-01 09:29 55.11736 84.29863 27073 ft 401 kts 252°
2026-05-01 09:29 55.10831 84.25318 27073 ft 401 kts 252°
2026-05-01 09:30 55.08983 84.16074 27072 ft 401 kts 252°
2026-05-01 09:30 55.08057 84.11480 27074 ft 401 kts 252°
2026-05-01 09:30 55.06204 84.02365 27073 ft 401 kts 252°
2026-05-01 09:31 55.05259 83.97724 27075 ft 401 kts 252°
2026-05-01 09:31 55.04324 83.93141 27073 ft 401 kts 252°
2026-05-01 09:31 55.02446 83.83984 27068 ft 401 kts 252°
2026-05-01 09:32 55.01518 83.79462 27067 ft 401 kts 252°
2026-05-01 09:32 54.99624 83.70237 25603 ft 406 kts 252°
2026-05-01 09:32 54.98670 83.65597 24788 ft 407 kts 252°
2026-05-01 09:33 54.97713 83.60976 24081 ft 405 kts 252°
2026-05-01 09:33 54.96759 83.56393 23347 ft 402 kts 252°
2026-05-01 09:33 54.94877 83.47379 22227 ft 388 kts 252°
2026-05-01 09:34 54.93964 83.43007 21744 ft 381 kts 251°
2026-05-01 09:34 54.93070 83.38726 21256 ft 374 kts 251°
2026-05-01 09:34 54.91308 83.30355 20326 ft 363 kts 251°
2026-05-01 09:35 54.90441 83.26261 19842 ft 359 kts 251°
2026-05-01 09:35 54.88733 83.18196 18818 ft 354 kts 251°
2026-05-01 09:35 54.87930 83.14167 18263 ft 352 kts 256°
2026-05-01 09:36 54.87602 83.09968 17680 ft 350 kts 269°
2026-05-01 09:36 54.87871 83.05782 17142 ft 349 kts 282°
2026-05-01 09:36 54.88714 83.01852 16621 ft 348 kts 296°
2026-05-01 09:36 54.89953 82.98237 16097 ft 347 kts 299°
2026-05-01 09:37 54.91203 82.94662 15576 ft 346 kts 299°
2026-05-01 09:37 54.93674 82.87531 14539 ft 343 kts 298°
2026-05-01 09:37 54.94900 82.83978 14017 ft 342 kts 298°
2026-05-01 09:38 54.97370 82.76939 12945 ft 338 kts 300°
2026-05-01 09:38 54.98669 82.73544 12448 ft 336 kts 302°
2026-05-01 09:38 54.99987 82.70211 11933 ft 333 kts 302°
2026-05-01 09:39 55.02625 82.63614 10908 ft 330 kts 303°
2026-05-01 09:39 55.03920 82.60333 10479 ft 326 kts 302°
2026-05-01 09:39 55.05170 82.57133 10373 ft 312 kts 302°
2026-05-01 09:40 55.06359 82.54072 10252 ft 299 kts 302°
2026-05-01 09:40 55.08608 82.48244 9913 ft 282 kts 302°
2026-05-01 09:40 55.09682 82.45453 9747 ft 275 kts 302°
2026-05-01 09:41 55.10749 82.42676 9331 ft 275 kts 302°
2026-05-01 09:41 55.12873 82.37154 8550 ft 272 kts 302°
2026-05-01 09:41 55.13573 82.35329 8254 ft 273 kts 302°
2026-05-01 09:42 55.14624 82.32586 7866 ft 272 kts 302°
2026-05-01 09:42 55.15674 82.29845 7474 ft 271 kts 302°
2026-05-01 09:42 55.17778 82.24382 6611 ft 272 kts 306°
2026-05-01 09:43 55.20886 82.20916 6028 ft 268 kts 349°
2026-05-01 09:43 55.22752 82.20843 6034 ft 270 kts
2026-05-01 09:43 55.24614 82.21325 6034 ft 271 kts
2026-05-01 09:44 55.28340 82.22428 6031 ft 273 kts 17°
2026-05-01 09:44 55.30071 82.23782 6034 ft 273 kts 33°
2026-05-01 09:44 55.31586 82.25784 6042 ft 273 kts 38°
2026-05-01 09:45 55.33087 82.27841 6043 ft 273 kts 38°
2026-05-01 09:45 55.36065 82.31936 6035 ft 272 kts 42°
2026-05-01 09:45 55.37280 82.34465 6038 ft 271 kts 59°
2026-05-01 09:46 55.38097 82.37442 6038 ft 271 kts 68°
2026-05-01 09:46 55.38837 82.40500 6041 ft 271 kts 68°
2026-05-01 09:46 55.39575 82.43550 6041 ft 271 kts 67°
2026-05-01 09:46 55.40310 82.46596 6048 ft 271 kts 69°
2026-05-01 09:47 55.40762 82.49797 6047 ft 270 kts 85°
2026-05-01 09:47 55.40712 82.53084 6049 ft 269 kts 98°
2026-05-01 09:47 55.40510 82.56351 6052 ft 268 kts 97°
2026-05-01 09:47 55.40314 82.59613 6042 ft 268 kts 97°
2026-05-01 09:48 55.40121 82.62883 6048 ft 269 kts 97°
2026-05-01 09:48 55.39752 82.66092 6038 ft 267 kts 111°
2026-05-01 09:48 55.38912 82.68990 6048 ft 265 kts 126°
2026-05-01 09:48 55.37847 82.71645 6055 ft 266 kts 127°
2026-05-01 09:49 55.36783 82.74298 6044 ft 266 kts 126°
2026-05-01 09:49 55.35638 82.76832 6050 ft 264 kts 139°
2026-05-01 09:49 55.34064 82.78415 6051 ft 261 kts 165°
2026-05-01 09:49 55.32276 82.78697 5869 ft 257 kts 189°
2026-05-01 09:50 55.30601 82.77687 5677 ft 257 kts 205°
2026-05-01 09:50 55.28982 82.76346 5523 ft 258 kts 205°
2026-05-01 09:50 55.27377 82.75028 5366 ft 250 kts 204°
2026-05-01 09:50 55.25836 82.73771 5224 ft 239 kts 204°
2026-05-01 09:51 55.24388 82.72483 5090 ft 230 kts 213°
2026-05-01 09:51 55.23295 82.70499 4947 ft 225 kts 236°
2026-05-01 09:51 55.22724 82.67936 4656 ft 230 kts 257°
2026-05-01 09:51 55.22456 82.65176 4366 ft 229 kts 258°
2026-05-01 09:52 55.22189 82.62432 4106 ft 228 kts 258°
2026-05-01 09:52 55.21919 82.59694 3822 ft 228 kts 257°
2026-05-01 09:52 55.21586 82.57000 3542 ft 225 kts 244°
2026-05-01 09:52 55.20570 82.55056 3285 ft 219 kts 202°
2026-05-01 09:53 55.19124 82.54857 3129 ft 209 kts 166°
2026-05-01 09:53 55.17713 82.55448 2884 ft 209 kts 168°
2026-05-01 09:53 55.16290 82.55922 2628 ft 207 kts 169°
2026-05-01 09:53 55.14864 82.56363 2344 ft 207 kts 169°
2026-05-01 09:54 55.13491 82.56786 2104 ft 191 kts 169°
2026-05-01 09:54 55.12258 82.57167 1877 ft 169 kts 170°
2026-05-01 09:54 55.11175 82.57501 1669 ft 150 kts 170°
2026-05-01 09:54 55.10188 82.57805 1461 ft 138 kts 169°
2026-05-01 09:55 55.09263 82.58090 1285 ft 133 kts 168°
2026-05-01 09:55 55.08333 82.58379 1075 ft 136 kts 169°
2026-05-01 09:55 55.07394 82.58681 877 ft 138 kts 169°
2026-05-01 09:55 55.06450 82.58967 723 ft 136 kts 169°
2026-05-01 09:56 55.05505 82.59246 540 ft 139 kts 169°
2026-05-01 09:56 55.04549 82.59545 383 ft 134 kts 169°
2026-05-01 09:56 55.03753 82.59786 375 ft 92 kts 170°
2026-05-01 09:56 55.03292 82.59928 374 ft 42 kts 170°
2026-05-01 09:57 55.03049 82.60004 375 ft 26 kts 172°
2026-05-01 09:57 55.02886 82.60050 373 ft 13 kts 172°
2026-05-01 09:57 55.02788 82.60040 374 ft 15 kts 196°
2026-05-01 09:57 55.02679 82.59982 373 ft 18 kts 202°
2026-05-01 09:58 55.02629 82.59935 373 ft 0 kts 213°
2026-05-01 10:01 55.02591 82.59891 373 ft 11 kts 214°
2026-05-01 10:01 55.02521 82.59817 373 ft 12 kts 199°
2026-05-01 10:01 55.02432 82.59825 373 ft 14 kts 170°
2026-05-01 10:02 55.02328 82.59858 373 ft 17 kts 172°
2026-05-01 10:02 55.02205 82.59896 373 ft 19 kts 170°
2026-05-01 10:02 55.02073 82.59935 373 ft 19 kts 170°
2026-05-01 10:02 55.01959 82.59971 373 ft 18 kts 169°
2026-05-01 10:03 55.01829 82.60012 373 ft 20 kts 169°
2026-05-01 10:03 55.01704 82.60050 373 ft 19 kts 169°
2026-05-01 10:03 55.01575 82.60090 373 ft 16 kts 171°
2026-05-01 10:03 55.01454 82.60127 373 ft 19 kts 169°
2026-05-01 10:04 55.01338 82.60162 373 ft 17 kts 170°
2026-05-01 10:04 55.01221 82.60198 373 ft 17 kts 170°
2026-05-01 10:04 55.01100 82.60235 373 ft 14 kts 170°
2026-05-01 10:04 55.00992 82.60269 373 ft 17 kts 170°
2026-05-01 10:05 55.00873 82.60308 373 ft 17 kts 163°
2026-05-01 10:05 55.00782 82.60416 373 ft 16 kts 131°
2026-05-01 10:05 55.00707 82.60583 373 ft 19 kts 129°
2026-05-01 10:05 55.00651 82.60772 373 ft 17 kts 101°
2026-05-01 10:06 55.00661 82.60984 373 ft 16 kts 81°
2026-05-01 10:06 55.00681 82.61193 373 ft 19 kts 83°
2026-05-01 10:06 55.00695 82.61358 373 ft 14 kts 79°
2026-05-01 10:06 55.00711 82.61528 373 ft 15 kts 82°
2026-05-01 10:07 55.00728 82.61716 373 ft 17 kts 81°
2026-05-01 10:07 55.00748 82.61933 373 ft 20 kts 81°
2026-05-01 10:07 55.00769 82.62175 373 ft 19 kts 81°
2026-05-01 10:07 55.00793 82.62424 373 ft 22 kts 81°
2026-05-01 10:08 55.00837 82.62914 373 ft 19 kts 81°
2026-05-01 10:08 55.00859 82.63156 373 ft 22 kts 80°
2026-05-01 10:08 55.00879 82.63374 373 ft 15 kts 81°
2026-05-01 10:09 55.00895 82.63562 373 ft 17 kts 81°
2026-05-01 10:09 55.00916 82.63786 373 ft 20 kts 81°
2026-05-01 10:09 55.00938 82.64023 373 ft 17 kts 80°
2026-05-01 10:09 55.00956 82.64233 373 ft 14 kts 82°
2026-05-01 10:10 55.00949 82.64412 373 ft 16 kts 104°
2026-05-01 10:10 55.00924 82.64606 373 ft 14 kts 102°
2026-05-01 10:10 55.00875 82.64972 373 ft 15 kts 104°
2026-05-01 10:11 55.00881 82.65155 373 ft 16 kts 83°
2026-05-01 10:11 55.00891 82.65366 373 ft 19 kts 81°
2026-05-01 10:11 55.00913 82.65609 373 ft 22 kts 81°
2026-05-01 10:11 55.00934 82.65839 373 ft 20 kts 81°
2026-05-01 10:12 55.00954 82.66069 373 ft 11 kts 80°
2026-05-01 10:12 55.00973 82.66153 373 ft 11 kts 65°
2026-05-01 10:12 55.01045 82.66486 373 ft 14 kts 69°
2026-05-01 10:13 55.01060 82.66550 373 ft 0 kts 67°
2026-05-01 10:13 55.01057 82.66538 373 ft 6 kts 67°
2026-05-01 10:13 55.01045 82.66487 373 ft 1 kts 68°
2026-05-01 10:14 55.01034 82.66517 373 ft 6 kts 143°
2026-05-01 10:14 55.00975 82.66540 373 ft 7 kts 172°
2026-05-01 10:14 55.00964 82.66544 373 ft 0 kts 170°